TRANSIT 10 DEB, 24705

Orbit data source: Space-Track

TRANSIT 10 DEB, 24705 is space debris in LEO originally from a launch on Wed, 22 Dec 1965 UTC launched from the Air Force Western Test Range (AFWTR). Debris objects in space refer to the collection of defunct objects orbiting the Earth. Examples of debris include non-operational satellites, rocket bodies, and fragments generated from explosions, collisions, or faulty payload assembly.

Loading next visibility...
Identifier
24705, 1965-109E
Orbit
LEO
Country
Flag of USUS
Related business
Manufacturer
Unknown
Mission
Spacecraft
Bus & Motor
Unknown
Mass
Unknown
Launch date (UTC)
1965-12-22 (60 years ago)
Launch vehicle
Unknown
Launch site
Air Force Western Test Range (AFWTR)
Object type
Payload
Rocket body
Debris
Shape & HBR
Unknown shape, 0.2 m
Radar Cross Section
Medium (>0.1 m² and <1 m²)

Expand to show TLE details & history
Last TLE update: 19 hours ago

TLE from 19 hours ago
0 TRANSIT 10 DEB
1 24705U 65109E   25310.28697160  .00004772  00000-0  25455-2 0  9992
2 24705  89.0657 221.6721 0082580  62.9965  53.4964 14.11423448469389
Epoch: 2025-11-06T06:53Z
TLE epoch observation values (Epoch: 2025-11-06T06:53:14.346Z)
Latitude
62.81606°
Longitude
-109.19516°
Altitude
830.178 km
Speed
7.462 km/s
True Right ascension
02h 39m 26s
True Declination
62° 40' 39"
Sunlit
Object was in full shadow at epoch
Visualization orbit readout
Latitude
Unknown
Longitude
Unknown
Altitude
Unknown
Speed
Unknown
Apparent Right ascension
Unknown
Apparent Declination
Unknown
Sunlit
N/A
Visualization observer readout
Local Sidereal Time
21:38:52
Azimuth
Unknown
Elevation
Unknown
Doppler factor
Unknown
Orbital elements
Apogee altitude
911.17 km
Perigee altitude
791.766 km
Semi-major axis
7,229.605 km
Eccentricity
0.00826
Inclination
89.0657°
RAAN
221.6721°
Arg. of periapsis
62.9965°
True anomaly
54.26173°
Mean anomaly
53.4964°
Eccentric anomaly
53.8786°
Mean motion
3.53079 °/min
Orbital period
101.96 mins
BSTAR
0.0025455
Loading maneuver chart data...
Computing Atmospheric mass density...
Loading historical data...
Loading historical data...
Loading historical data...
Loading historical data...
Loading historical data...
Loading historical data...
Loading historical data...

Documentation

Showing up to 5 results
|